Back to catalog

SL-14 R/B

AlivePO
NORAD 19337·ROCKET BODY·🇷🇺 Russia

Launched Jul 26, 1988 from Plesetsk Cosmodrome

Loading…

Next Passes (next 24 hours)

TLE

FreshSource: Space-Track

Epoch: Sep 14, 2026, 01:37 UTC

1 19337U 88064B   26257.06770159 -.00000110  00000-0 -31783-3 0  9995
2 19337  82.5422 270.9346 0016034  20.9394   1.2353 13.17275829833441

Track SL-14 R/B in real time with AllMySat

Download on the App Store